Location: Nickerson Gardens
(33.9320°N, 118.2484°W)
Time: 14:56:52
(UTC+00:00)

NOAA 19 - Visible Passes

Search period start: 20 April 2021 00:00
Search period end: 30 April 2021 00:00
Orbit: 841 x 860 km, 99.2° (Epoch: 20 April)

Date Brightness Start Highest point End Pass type
(mag) Time Alt. Az. Time Alt. Az. Time Alt. Az.
20 Apr 6.8 02:42:54 10° SSW 02:48:01 40° W 02:53:12 10° NNW visible
24 Apr 8.2 03:40:03 10° WSW 03:42:02 12° W 03:44:02 10° WNW visible
25 Apr 8.0 03:26:50 10° SW 03:30:10 16° W 03:33:30 10° NW visible
26 Apr 7.8 03:14:12 10° SW 03:18:18 21° W 03:22:26 10° NW visible
27 Apr 7.4 03:01:49 10° SSW 03:06:27 28° W 03:11:08 10° NW visible
